Welcome to the New NWS' Forecast!
Most changes are behind the scenes, but click here for differences you might notice.
Latest weather observations around

Pine Bluff, Grider Field Airport (KPBF)

Using English Units (Switch to International System of Units)
Date/ Time (CDT) Wind (mph) Vis. (mi) Weather Sky Cond. Temp (°F) Rel. Humidity Wind Chill (°F) Heat Index (°F) Pressure Precip. (in)
Air Dwpt 6 hour Altimeter (inHg) Sea level (inHg) 1 hr 3 hr 6 hr
Max Min
Apr 28 05:53 E 6 10 Clear   59 57     93%     29.75 29.74      
Apr 28 04:53 E 5 10 Clear CLR 58 56     93%     29.75 29.74      
Apr 28 03:53 ENE 3 10 Mostly Cloudy BKN110 59 57     93%     29.75 29.74      
Apr 28 02:53 E 3 10 Cloudy OVC110 59 57     93%     29.74 29.74      
Apr 28 01:53 E 5 10 Cloudy OVC110 59 56     90%     29.76 29.75      
Apr 28 00:53 ESE 6 10 Mostly Clear FEW110 58 55     90%     29.77 29.77      
Apr 27 23:53 SE 7 10 Clear CLR 59 55     87%     29.78 29.78      
Apr 27 22:53 SE 7 10 Clear CLR 59 55     87%     29.79 29.79      
Apr 27 21:53 SE 8 10 Clear CLR 60 56     86%     29.78 29.78      
Apr 27 20:53 ESE 7 10 Clear CLR 61 56     83%     29.77 29.76      
Apr 27 19:53 ESE 10 10 Clear CLR 64 53     67%     29.75 29.74      
Apr 27 18:53 ESE 14 10 Clear CLR 67 54     63%     29.77 29.76      
Apr 27 17:53 ESE 14 10 Clear CLR 68 55     63%     29.77 29.77      
Apr 27 16:53 ESE 5 10 Clear CLR 69 54     59%     29.8 29.79      
Apr 27 15:53 SE 5 10 Clear CLR 69 51     53%     29.8 29.79      
Apr 27 14:53 3 10 Clear CLR 67 49     52%     29.84 29.83      
Apr 27 13:53 S 6 10 Clear CLR 64 48     56%     29.86 29.86      
Apr 27 12:53 ESE 5 10 Clear CLR 62 48     60%     29.85 29.85      
Apr 27 11:53 Calm 10 Clear CLR 60 45     57%     29.87 29.86      
Apr 27 10:53 E 3 10 Clear CLR 58 44     60%     29.87 29.87      
Apr 27 09:53 ENE 5 10 Clear CLR 56 43     62%     29.87 29.86      
Apr 27 08:53 WNW 6 10 Clear CLR 54 46     74%     29.85 29.85      
Apr 27 07:53 WNW 8 10 Clear CLR 50 46     86% 47   29.82 29.81      
Apr 27 06:53 W 3 10 Clear CLR 47 46     97% 46   29.81 29.8      
Apr 27 05:53 WSW 3 10 Clear CLR 47 46     97% 46   29.78 29.78      
Apr 27 04:53 W 5 10 Clear CLR 49 46     90% 47   29.76 29.76      
Apr 27 03:53 W 5 10 Clear CLR 50 46     86% 48   29.74 29.73      
Apr 27 03:08 WNW 9 10 Partly Cloudy SCT019 51 47     86%     29.73        
Apr 27 02:53 W 8 10 Mostly Cloudy BKN019 52 47     83%     29.73 29.72      
Apr 27 01:53 NW 17 10 Cloudy OVC019 53 47     80%     29.73 29.72      
Apr 27 01:30 WNW 13 10 Cloudy SCT012 OVC016 53 48     83%     29.73        
Apr 27 00:53 WNW 8 10 Cloudy OVC014 53 50     89%     29.73 29.72     0
Apr 26 23:53 WNW 14 10 Cloudy OVC011 55 51     86%     29.69 29.68      
Apr 26 23:33 WNW 15 10 Cloudy OVC009 55 53     93%     29.67        
Apr 26 23:00 WNW 9 10 Cloudy BKN010 BKN015 OVC036 57 54     89%     29.66        
Apr 26 22:53 W 9 10 Cloudy SCT010 BKN016 OVC036 57 54     89%     29.66 29.65      
Apr 26 22:08 WNW 15 10 Cloudy OVC010 59 57     93%     29.63        
Apr 26 21:53 W 14 10 Cloudy OVC008 61 59     93%     29.61 29.6   0  
Apr 26 21:26 WSW 8 7 Cloudy BKN009 OVC018 61 60     97%     29.58        
Apr 26 21:17 WSW 7 5 Fog/Mist SCT005 SCT011 OVC018 61 60     97%     29.58        
Apr 26 20:53 W 9 10 Cloudy OVC006 61 60     97%     29.55 29.54 0    
Apr 26 20:08 NW 5 10 Light Rain BKN006 BKN011 OVC041 60 60     100%     29.51   0    
Apr 26 20:00 W 7 10 Light Rain BKN004 BKN012 OVC040 60 59     96%     29.54   0    
Apr 26 19:53 WSW 10 10 Light Rain SCT004 BKN036 OVC110 60 59     96%     29.54 29.53 0    
Apr 26 19:38 SSW 7 10 Mostly Cloudy SCT004 BKN110 60 59     96%     29.52   0    
Apr 26 19:26 SSE 5 10 Light Rain FEW002 SCT070 BKN110 60 59     96%     29.49   0    
Apr 26 19:12 E 10 5 Rain and Fog/Mist BKN070 BKN095 OVC110 60 59     96%     29.46   0    
Apr 26 18:53 SSE 7 6 Thunderstorms and Rain and Fog/Mist FEW004 SCT070 OVC090 60 59     96%     29.52 29.51 0   2
Apr 26 18:42 SE 6 7 Thunderstorms and Rain FEW004 BKN090 OVC110 60 59     96%     29.51   0    
Apr 26 17:53 W 6 4 Thunderstorms and Rain and Fog/Mist BKN043 BKN065 OVC085 60 59     96%     29.47 29.46 1    
Apr 26 17:48 Calm 3 Thunderstorms and Heavy Rain and Fog/Mist BKN043 OVC060 61 59     94%     29.48   1    
Apr 26 17:40 Calm 1.75 Thunderstorms and Heavy Rain and Fog/Mist OVC035 60 59     96%     29.5   1    
Apr 26 17:17 NNW 11 1.25 Thunderstorms and Heavy Rain and Fog/Mist BKN022 OVC029 60 58     93%     29.47   1    
Apr 26 17:03 Calm 0.75 Thunderstorms and Heavy Rain and Fog/Mist BKN020 OVC042 60 59     96%     29.5   0    
Apr 26 16:53 NNW 9 2.5 Thunderstorms and Heavy Rain and Fog/Mist SCT023 OVC042 60 58     93%     29.48 29.47 0    
Apr 26 16:44 WNW 15 2.5 Thunderstorms and Heavy Rain and Fog/Mist FEW017 FEW027 OVC040 60 58     93%     29.49   0    
Apr 26 16:33 NW 15 1.75 Thunderstorms and Heavy Rain and Fog/Mist FEW019 BKN038 OVC044 61 58     90%     29.48   0    
Apr 26 16:27 WNW 17 5 Thunderstorms and Rain and Fog/Mist FEW028 BKN040 OVC050 62 59     90%     29.51   0    
Apr 26 16:12 SW 9 10 Light Rain SCT038 BKN048 OVC060 75 67     76%   76 29.48   0    
Apr 26 15:53 SSE 13 10 Cloudy BKN040 OVC050 75 66     74%   76 29.46 29.45   0  
Apr 26 15:21 S 20 10 Cloudy and Windy BKN032 OVC039 75 66     74%   76 29.45        
Apr 26 14:53 SSE 15 10 Cloudy BKN029 OVC036 75 67     76%   76 29.48 29.47      
Apr 26 14:33 SSE 16 10 Cloudy BKN027 BKN038 OVC080 76 67     74%   77 29.49        
Apr 26 13:53 SSE 16 10 Mostly Cloudy FEW033 BKN085 74 67     79%   75 29.52 29.51 0    
Apr 26 13:35 SSE 16 10 Cloudy FEW028 BKN070 OVC085 74 67     79%   75 29.53   0    
Apr 26 12:53 SE 9 9 Light Rain OVC020 70 67     90%     29.56 29.56 0   0
Apr 26 11:53 SE 11 10 Light Rain OVC017 70 65     84%     29.6 29.59 0    
Apr 26 10:53 SSE 14 10 Cloudy OVC015 70 65     84%     29.6 29.59 0    
Apr 26 10:37 SSE 15 10 Cloudy OVC015 70 65     84%     29.6        
Apr 26 09:53 SSE 14 10 Cloudy OVC013 69 64     84%     29.6 29.59   0  
Apr 26 09:00 SSE 16 10 Cloudy BKN013 BKN027 OVC060 68 64     87%     29.59        
Apr 26 08:53 SSE 17 10 Cloudy SCT014 BKN027 OVC065 68 64     87%     29.6 29.59 0    
Apr 26 08:51 SSE 15 10 Cloudy SCT014 BKN027 OVC065 68 64     88%     29.6   0    
Apr 26 08:43 SE 14 10 Mostly Cloudy FEW014 SCT027 BKN065 68 64     87%     29.61   0    
Apr 26 07:53 SE 11 9 Light Rain SCT016 BKN028 OVC050 67 63     87%     29.61 29.6 0    
Apr 26 07:46 SE 14 10 Cloudy SCT016 BKN029 OVC050 67 63     87%     29.61        
Apr 26 07:06 SE 13 10 Cloudy FEW021 SCT038 OVC050 67 63     87%     29.6        
Apr 26 06:53 SE 11 10 Cloudy BKN022 BKN042 OVC050 67 63     87%     29.6 29.59 0   0
Apr 26 05:53 SE 8 10 Cloudy SCT028 OVC045 68 63     84%     29.58 29.57      
Apr 26 05:34 ESE 7 10 Cloudy BKN029 BKN038 OVC045 68 63     84%     29.58        
Apr 26 04:53 SSE 8 10 Cloudy SCT030 OVC044 69 62     78%     29.58 29.57      
Apr 26 03:53 SE 10 10 Cloudy OVC042 70 62     76%     29.57 29.56      
Apr 26 02:53 S 8 10 Cloudy OVC037 71 62     73%   71 29.58 29.57      
Apr 26 01:53 S 11 10 Cloudy OVC038 71 62     73%   71 29.57 29.56      
Apr 26 00:53 SSE 9 10 Cloudy OVC043 71 62     73%   71 29.59 29.58      
Apr 25 23:53 S 10 10 Cloudy OVC042 71 62     73%   71 29.6 29.59      
Apr 25 22:53 S 10 10 Mostly Cloudy BKN042 70 61     73%     29.59 29.59      
Apr 25 21:53 S 8 10 Clear CLR 69 60     73%     29.6 29.59      
Apr 25 20:53 SSE 9 10 Clear CLR 72 60     66%   72 29.57 29.57      
Apr 25 19:53 S 11 10 Clear CLR 75 59     57%   75 29.56 29.55      
Apr 25 18:53 S 18 10 Clear CLR 77 59     54%   77 29.56 29.55     0
Apr 25 17:53 S 13 10 Clear   80 60     51%   81 29.57 29.56 0    
Apr 25 16:53 S 20 10 Light Rain CLR 81 58     45%   81 29.57 29.57 0    
Apr 25 15:53 S 16 10 Clear CLR 81 58     45%   81 29.58 29.57      
Apr 25 14:53 S 15 10 Clear CLR 80 56     44%   80 29.62 29.61      
Apr 25 13:53 S 13 10 Clear CLR 78 56     47%   78 29.64 29.63      
Apr 25 12:53 S 16 10 Clear CLR 77 54     45%   77 29.67 29.66      
Apr 25 11:53 S 17 10 Clear CLR 75 54     48%   74 29.69 29.68      
Apr 25 09:53 SSW 13 10 Clear CLR 68 54     61%     29.72 29.72      
Apr 25 08:53 SSW 10 10 Clear CLR 64 54     70%     29.73 29.72      
Apr 25 07:53 SSW 7 10 Clear CLR 59 51     75%     29.73 29.73      
Apr 25 06:53 SSW 8 10 Clear CLR 55 48     77%     29.72 29.72      
Apr 25 05:53 S 6 10 Clear CLR 52 47     83%     29.72 29.71      
Apr 25 04:53 S 7 10 Clear CLR 52 47     83%     29.72 29.71      
Apr 25 03:53 Calm 10 Clear CLR 52 49     89%     29.72 29.71      
Apr 25 02:53 Calm 10 Clear CLR 53 49     86%     29.73 29.72      
Apr 25 01:53 Calm 10 Clear CLR 55 49     80%     29.74 29.74      
Apr 25 00:53 Calm 10 Clear CLR 57 48     72%     29.75 29.74      
Apr 24 23:53 SSE 5 10 Clear CLR 57 49     74%     29.75 29.75      
Apr 24 22:53 S 6 10 Clear CLR 59 50     72%     29.76 29.75      
Apr 24 21:53 Calm 10 Clear CLR 61 49     64%     29.76 29.75      
Apr 24 20:53 SE 6 10 Clear CLR 62 51     67%     29.75 29.75      
Apr 24 19:53 SE 8 10 Clear CLR 64 53     67%     29.75 29.74      
Apr 24 18:53 ESE 3 10 Clear CLR 73 46     38%   72 29.76 29.75      
Apr 24 17:53 SE 7 10 Clear CLR 75 46     36%   74 29.77 29.76      
Apr 24 16:53 ESE 6 10 Clear CLR 76 43     31%   75 29.78 29.78      
Apr 24 15:53 Calm 10 Clear CLR 75 41     29%   74 29.81 29.81      
Apr 24 14:53 5 10 Clear CLR 74 42     32%   73 29.85 29.84      
Apr 24 13:53 6 10 Clear CLR 73 42     33%   72 29.88 29.88      
Apr 24 12:53 NNW 9 10 Clear CLR 72 42     34%   70 29.92 29.91      
Apr 24 11:53 N 7 10 Clear CLR 70 44     39%     29.95 29.95      
Apr 24 10:53 N 8 10 Clear CLR 66 44     45%     29.97 29.96      
Apr 24 09:53 N 8 10 Clear CLR 63 45     52%     29.97 29.97      
Apr 24 08:53 NNW 10 10 Clear CLR 59 46     62%     29.97 29.97      
Apr 24 07:53 NW 3 10 Clear CLR 53 46     77%     29.97 29.96      
Apr 24 06:53 Calm 10 Clear CLR 49 43     80%     29.95 29.95      
Apr 24 05:53 WNW 7 10 Clear CLR 50 43     77% 47   29.93 29.93      
Apr 24 04:53 WNW 5 10 Clear CLR 48 44     86% 46   29.91 29.91      
Apr 24 03:53 W 5 10 Clear CLR 48 45     89% 46   29.9 29.9      
Apr 24 02:53 Calm 10 Clear CLR 49 47     93%     29.9 29.89      
Apr 24 01:53 W 3 10 Clear CLR 50 49     96% 49   29.92 29.91      
Apr 24 00:53 Calm 10 Clear CLR 51 49     92%     29.93 29.92      
Apr 23 23:53 Calm 10 Clear CLR 51 50     96%     29.96 29.96      
Apr 23 22:53 SSE 3 10 Clear CLR 53 51     93%     29.97 29.96      
Apr 23 21:53 Calm 10 Clear CLR 57 50     77%     29.98 29.97      
Apr 23 20:53 Calm 10 Clear CLR 58 51     78%     29.97 29.96      
Apr 23 19:53 N 3 10 Clear CLR 65 43     45%     29.95 29.95      
Apr 23 18:53 N 5 10 Clear CLR 67 45     45%     29.95 29.95      
Apr 23 17:53 N 8 10 Clear CLR 69 43     39%     29.95 29.95      
Apr 23 16:53 N 13 10 Clear CLR 69 42     38%     29.96 29.95      
Apr 23 15:53 NNW 15 10 Clear CLR 68 43     40%     29.96 29.96      
Apr 23 14:53 NNW 10 10 Clear CLR 67 42     40%     29.97 29.97      
Apr 23 13:53 NW 16 10 Clear CLR 65 42     43%     29.98 29.98      
Apr 23 12:53 NNW 11 10 Clear CLR 65 45     48%     30 30      
Apr 23 11:53 N 14 10 Clear CLR 61 45     56%     30.02 30.02      
Apr 23 10:53 N 15 10 Clear CLR 60 45     57%     30.03 30.02      
Apr 23 09:53 N 14 10 Clear CLR 57 46     67%     30.03 30.02      
Apr 23 08:53 NNW 14 10 Clear CLR 55 46     72%     30.03 30.02      
Apr 23 07:53 NNW 14 10 Mostly Clear FEW041 52 46     80%     30.03 30.02      
Apr 23 07:02 NNW 11 10 Cloudy SCT018 SCT022 OVC035 51 47     86%     30.02        
Apr 23 06:53 NNW 13 10 Cloudy SCT018 BKN025 OVC035 51 47     86%     30.01 30.01     0
Apr 23 05:53 NW 9 10 Cloudy OVC019 51 48     89%     29.99 29.99      
Apr 23 05:39 NW 11 10 Cloudy FEW008 OVC019 50 48     93% 46   29.99        
Apr 23 05:14 NNW 9 10 Cloudy SCT008 OVC014 50 48     93% 46   29.98        
Apr 23 04:53 NW 10 9 Cloudy BKN010 OVC016 50 48     93% 46   29.98 29.98 0    
Apr 23 03:53 NNW 10 10 Cloudy BKN011 OVC018 50 48     93% 46   29.98 29.98 0 0  
Apr 23 02:53 N 9 10 Cloudy OVC017 51 47     86%     29.99 29.98      
Apr 23 01:53 NNW 9 10 Cloudy BKN019 OVC023 51 47     86%     30 29.99      
Apr 23 00:53 N 13 10 Cloudy BKN019 BKN026 OVC033 52 48     86%     30.02 30.01 0   0
Apr 22 23:53 N 11 10 Cloudy BKN018 BKN025 OVC036 53 49     86%     30.01 30.01      
Apr 22 22:53 NNW 9 10 Cloudy OVC021 52 50     93%     30.01 30      
Apr 22 22:13 NNW 9 10 Cloudy FEW012 BKN020 OVC030 52 50     93%     30.02        
Apr 22 22:02 N 7 10 Cloudy FEW010 FEW020 OVC031 52 50     93%     30.02        
Apr 22 21:53 NNW 10 10 Cloudy FEW009 OVC027 52 50     93%     30.02 30.01 0 0  
Apr 22 21:41 N 10 10 Light Rain FEW008 SCT018 OVC025 52 50     93%     30.02   0    
Apr 22 21:15 N 14 6 Light Rain and Fog/Mist SCT007 BKN010 OVC021 53 51     93%     30.01   0    
Apr 22 20:53 N 10 7 Light Rain FEW008 SCT015 OVC021 53 51     93%     30 30 0    
Apr 22 20:50 N 10 7 Light Rain FEW008 SCT012 OVC021 54 52     94%     30   0    
Apr 22 20:32 N 9 8 Light Rain SCT013 OVC020 54 51     90%     29.99   0    
Apr 22 20:09 N 11 10 Cloudy BKN014 OVC023 55 51     86%     29.99        
Apr 22 19:53 N 10 10 Cloudy BKN017 OVC025 55 51     86%     29.98 29.97 0    
Apr 22 19:40 N 7 10 Cloudy FEW012 BKN019 OVC055 55 52     89%     29.97   0    
Apr 22 19:32 N 7 10 Cloudy SCT021 BKN033 OVC055 54 52     93%     29.97   0    
Apr 22 18:53 N 7 4 Light Rain and Fog/Mist SCT009 OVC016 54 53     97%     29.97 29.97 0   0
Apr 22 18:48 N 10 4 Light Rain and Fog/Mist SCT009 OVC016 54 52     94%     29.97   0    
Apr 22 18:33 N 8 8 Light Rain BKN011 BKN017 OVC022 55 52     89%     29.96   0    
Apr 22 18:20 N 9 10 Cloudy FEW010 BKN015 OVC021 55 52     89%     29.96   0    
Apr 22 17:53 N 11 10 Cloudy OVC011 56 52     87%     29.95 29.95      
Apr 22 17:07 NNE 11 10 Cloudy OVC010 56 53     90%     29.94        
Apr 22 16:53 NNE 14 10 Cloudy OVC009 56 53     90%     29.93 29.93      
Apr 22 16:38 NNE 13 10 Cloudy OVC009 56 53     90%     29.93        
Apr 22 15:53 N 10 10 Cloudy OVC012 58 54     87%     29.93 29.92      
Apr 22 14:53 NNW 13 10 Cloudy BKN013 OVC020 59 54     83%     29.93 29.92      
Apr 22 13:53 N 10 10 Cloudy OVC013 58 54     87%     29.94 29.93      
Apr 22 12:53 N 10 10 Cloudy OVC012 57 54     89%     29.93 29.93 0   0
Apr 22 11:53 N 10 9 Cloudy OVC010 56 54     93%     29.93 29.92 0    
Apr 22 11:29 N 13 10 Cloudy OVC010 56 54     93%     29.92   0    
Apr 22 10:53 NNW 11 8 Cloudy OVC008 57 55     93%     29.91 29.91 0    
Apr 22 09:53 NNW 15 3 Rain and Fog/Mist OVC007 57 56     96%     29.89 29.88 0 0  
Apr 22 08:53 NW 11 3 Rain and Fog/Mist OVC006 58 57     97%     29.86 29.85 0    
Apr 22 07:53 NW 6 10 Light Rain OVC005 58 56     93%     29.85 29.84 0    
Apr 22 06:53 Calm 10 Cloudy OVC005 57 56     96%     29.84 29.83     1
Apr 22 05:53 NE 3 10 Cloudy OVC005 56 55     97%     29.83 29.83 0    
Apr 22 04:53 ENE 6 10 Cloudy OVC006 56 56     100%     29.82 29.82 0    
Apr 22 04:17 Calm 10 Cloudy OVC006 56 56     100%     29.85   0    
Apr 22 03:53 ENE 5 8 Rain BKN006 BKN055 OVC090 55 55     100%     29.79 29.78 0 1  
Apr 22 03:34 NNE 9 8 Rain BKN006 BKN043 OVC050 55 54     96%     29.83   0    
Apr 22 03:25 N 8 9 Thunderstorms and Rain SCT006 BKN036 OVC050 55 54     96%     29.85   0    
Apr 22 03:18 ENE 15 6 Light Rain and Fog/Mist SCT006 BKN031 OVC046 55 54     96%     29.84   0    
Apr 22 03:16 E 15 7 Thunderstorms and Rain BKN006 BKN029 OVC046 55 54     96%     29.84   0    
Apr 22 03:01 NNE 16 5 Thunderstorms and Rain and Fog/Mist FEW006 BKN023 OVC034 55 54     96%     29.84   0    
Apr 22 02:53 NNE 17 2.5 Thunderstorms and Heavy Rain and Fog/Mist FEW006 BKN016 OVC030 56 54     93%     29.83 29.82 1    
Apr 22 02:46   1.5 Thunderstorms and Heavy Rain and Fog/Mist FEW006 SCT010 OVC016 56 55     97%     29.86   0    
Apr 22 02:35   1.75 Thunderstorms and Heavy Rain and Fog/Mist SCT006 BKN010 OVC015 58 57     97%     29.83   0    
Apr 22 02:33   2.5 Thunderstorms and Heavy Rain and Fog/Mist BKN006 OVC013 60 59     96%     29.84   0    
Apr 22 02:25 N 13 6 Thunderstorms and Rain and Fog/Mist SCT006 OVC013 63 62     97%     29.82   0    
Apr 22 02:08 N 7 6 Thunderstorms and Fog/Mist BKN007 BKN010 OVC024 64 62     93%     29.8   0    
Apr 22 01:57 NNE 10 7 Light Rain BKN006 BKN023 OVC050 64 62     93%     29.79   0    
Apr 22 01:53 N 9 7 Light Rain SCT006 BKN023 OVC048 64 63     96%     29.8 29.8 0    
Apr 22 01:51 NNE 8 7 Light Rain SCT006 BKN040 OVC048 64 63     94%     29.81   0    
Apr 22 00:53 E 11 10 Mostly Clear FEW015 FEW039 65 63     93%     29.78 29.77 0   0
Apr 22 00:30 7 10 Light Rain FEW011 BKN037 OVC080 65 64     97%     29.81   0    
Apr 22 00:01 Calm 10 Cloudy FEW014 BKN045 OVC065 66 63     90%     29.82   0    
Apr 21 23:53 Calm 10 Light Rain FEW015 BKN029 OVC070 66 64     93%     29.82 29.81 0    
Apr 21 22:53 NE 6 10 Cloudy SCT043 BKN060 OVC110 67 63     87%     29.84 29.83      
Apr 21 21:53 NE 7 10 Clear CLR 67 62     84%     29.83 29.82   0  
Apr 21 20:53 ENE 8 10 Mostly Clear FEW110 68 63     84%     29.83 29.82      
Apr 21 19:53 NE 8 10 Mostly Cloudy FEW055 BKN095 69 63     81%     29.84 29.83 0    
Apr 21 18:53 NNE 11 10 Light Rain FEW055 BKN090 OVC110 70 64     81%     29.84 29.83 0   0
Apr 21 17:53 N 9 10 Mostly Cloudy BKN110 75 64     69%   75 29.84 29.83      
Apr 21 16:53 NNE 8 10 Clear CLR 76 64     67%   76 29.84 29.83      
Apr 21 15:53 N 9 10 Mostly Cloudy SCT050 SCT065 BKN080 73 63     71%   73 29.86 29.85      
Apr 21 14:53 N 7 10 Clear CLR 74 62     66%   74 29.88 29.87      
Apr 21 13:53 N 13 10 Clear CLR 71 61     70%   71 29.92 29.91      
Apr 21 12:53 NNE 21 10 Clear and Windy   68 60     76%     29.92 29.91      
Apr 21 11:53 SW 7 10 Partly Cloudy FEW030 SCT100 77 64     64%   77 29.93 29.93      
Apr 21 10:53 SSW 10 10 Mostly Clear FEW100 75 66     74%   76 29.95 29.95      
Apr 21 09:53 SW 10 10 Mostly Cloudy FEW049 BKN080 BKN100 73 66     79%   74 29.96 29.96      
Apr 21 09:33 SW 9 10 Cloudy SCT012 BKN049 OVC075 71 66     84%   72 29.96        
Apr 21 09:22 SW 13 10 Cloudy BKN012 OVC070 71 67     87%   72 29.96        
Apr 21 08:53 SW 10 10 Mostly Cloudy SCT070 BKN080 BKN095 71 67     87%   72 29.96 29.96      
Apr 21 07:53 SSW 7 10 Mostly Clear FEW080 FEW100 68 66     93%     29.96 29.95      
Apr 21 06:53 S 6 7 Partly Cloudy SCT100 66 65     96%     29.95 29.94      
Apr 21 05:53 SSW 3 10 Mostly Cloudy BKN090 66 65     96%     29.95 29.94      
Apr 21 04:53 Calm 10 Clear CLR 65 64     97%     29.95 29.94      
Apr 21 03:53 Calm 7 Mostly Cloudy BKN090 65 64     97%     29.96 29.95      
Apr 21 03:34 Calm 3 Fog/Mist CLR 65 64     97%     29.96        
Apr 21 03:04 Calm 1.75 Fog/Mist CLR 65 64     97%     29.96        
Apr 21 02:53 Calm 9 Clear CLR 64 63     96%     29.96 29.96      
Apr 21 01:53 Calm 10 Clear CLR 66 65     96%     29.98 29.96      
Apr 21 00:53 Calm 8 Clear CLR 67 65     93%     30 29.99      
Apr 20 23:53 Calm 10 Clear CLR 67 65     93%     30 29.99      
Apr 20 22:53 Calm 10 Clear CLR 68 66     93%     30 30      
Apr 20 21:53 Calm 10 Clear CLR 70 67     90%     30.01 30      
Apr 20 20:53 Calm 10 Clear CLR 72 66     82%   73 30 29.99      
Apr 20 19:53 S 5 10 Clear CLR 77 66     69%   78 29.98 29.98      
Apr 20 18:53 SW 6 10 Clear CLR 80 63     56%   81 29.98 29.97     0
Apr 20 17:53 SSW 10 10 Clear CLR 82 62     51%   83 29.99 29.98      
Apr 20 16:53 SW 13 10 Clear CLR 83 62     49%   84 29.99 29.98      
Apr 20 15:53 S 8 10 Mostly Cloudy FEW042 SCT050 BKN070 81 66     61%   83 30.01 30   0  
Apr 19 15:53 SSW 11 10 Mostly Clear FEW050 83 61     48%   83 30.07 30.06      
Apr 19 14:53 S 15 10 Clear CLR 82 62     51%   83 30.08 30.07      
Apr 19 13:53 S 14 10 Clear CLR 81 64     56%   83 30.1 30.09      
Apr 19 12:53 S 9 10 Partly Cloudy SCT035 79 65     62%   80 30.12 30.11      
Apr 19 11:53 S 10 10 Mostly Clear FEW029 79 67     67%   80 30.13 30.13      
Apr 19 10:53 S 5 10 Clear CLR 76 67     74%   77 30.14 30.13      
Apr 19 09:53 SE 5 10 Clear CLR 74 67     79%   75 30.13 30.13      
Apr 19 08:53 S 5 10 Clear CLR 70 66     87%     30.14 30.13      
Apr 19 07:53 SSW 3 10 Clear CLR 67 64     90%     30.13 30.12      
Apr 19 06:53 SSW 3 10 Clear CLR 64 63     96%     30.12 30.11      
Apr 19 05:53 S 5 10 Clear CLR 63 62     97%     30.11 30.11      
Apr 19 04:53 SE 5 10 Clear CLR 64 62     93%     30.1 30.09      
Apr 19 03:53 S 3 10 Clear CLR 64 63     96%     30.09 30.08      
Apr 19 02:53 SSW 5 10 Clear CLR 65 64     97%     30.08 30.07      
Apr 19 01:53 Calm 10 Clear CLR 66 65     96%     30.09 30.08      
Apr 19 00:53 SSE 6 10 Clear CLR 67 65     93%     30.1 30.09     0
Apr 18 22:53 E 5 10 Clear CLR 67 65     93%     30.09 30.09      
Apr 18 21:53 SSE 5 10 Clear CLR 67 66     97%     30.1 30.09   0  
Apr 18 20:53 Calm 10 Clear CLR 67 65     93%     30.07 30.07      
Apr 18 19:53 S 6 10 Clear CLR 68 65     90%     30.06 30.06 0    
Apr 18 18:53 S 3 10 Light Rain FEW049 SCT070 OVC090 68 66     93%     30.06 30.06 0   0
Apr 18 18:51 SSW 3 10 Light Rain FEW049 SCT070 OVC100 68 66     94%     30.07   0    
Apr 18 17:53 S 14 10 Thunderstorms FEW028 BKN042 OVC070 70 64     81%     30.07 30.06      
Apr 18 17:48 SSE 11 10 Thunderstorms FEW026 BKN037 OVC070 72 64     78%   72 30.06        
Apr 18 17:36 SE 14 10 Mostly Cloudy FEW027 SCT035 BKN042 72 65     79%   73 30.06        
Apr 18 17:27   10 Thunderstorms FEW025 SCT037 BKN065 73 65     76%   74 30.06        
Apr 18 17:17 ENE 9 10 Partly Cloudy FEW060 SCT090 79 66     65%   80 30.05        
Apr 18 17:03 NNE 7 10 Thunderstorms CLR 79 66     65%   80 30.03        
Apr 18 16:53 N 7 10 Clear CLR 79 65     62%   80 30.03 30.02      
Apr 18 15:53 N 7 10 Mostly Clear FEW041 80 66     62%   82 30.04 30.03      
Apr 18 14:53 Calm 10 Mostly Clear FEW033 80 64     58%   82 30.05 30.04      
Apr 18 13:53 SW 7 10 Mostly Cloudy SCT032 BKN043 78 65     64%   79 30.06 30.06      
Apr 18 12:53 SSW 5 10 Clear CLR 76 65     69%   76 30.07 30.06      
Apr 18 12:16 Calm 10 Partly Cloudy SCT019 74 65     74%   74 30.08        
Apr 18 11:53 6 10 Mostly Cloudy BKN017 75 66     74%   76 30.09 30.08      
Apr 18 11:26 5 10 Mostly Cloudy SCT011 BKN021 73 66     79%   74 30.09        
Apr 18 10:53 Calm 10 Cloudy OVC010 71 66     84%   72 30.09 30.08      
Apr 18 10:19 S 5 10 Cloudy SCT008 OVC011 70 66     87%     30.09        
Apr 18 09:53 SSE 6 10 Cloudy OVC007 68 66     93%     30.09 30.08      
Apr 18 09:16 ESE 6 7 Cloudy OVC006 68 66     93%     30.08        
Apr 18 08:53 ESE 6 5 Fog/Mist BKN003 OVC008 68 66     93%     30.08 30.07      
Apr 18 08:37 ESE 5 5 Fog/Mist BKN003 OVC009 67 66     97%     30.08        
Apr 18 07:53 E 6 4 Fog/Mist FEW002 OVC009 67 66     97%     30.08 30.07      
Apr 18 07:44 E 6 3 Fog/Mist FEW003 OVC009 67 66     97%     30.08        
Apr 18 07:34 E 3 2 Fog/Mist SCT004 OVC009 67 66     97%     30.08        
Apr 18 07:28 E 5 1.5 Fog/Mist BKN004 OVC008 66 66     100%     30.07        
Apr 18 07:13 E 6 0.75 Fog/Mist BKN004 OVC008 66 66     100%     30.07        
Apr 18 07:08 E 6 1.75 Fog/Mist BKN005 OVC008 66 65     96%     30.06        
Apr 18 06:53 E 5 4 Fog/Mist OVC005 67 65     93%     30.06 30.05      
Apr 18 06:43 E 3 6 Fog/Mist OVC005 67 65     93%     30.06        
Apr 18 05:53 NE 3 6 Fog/Mist OVC004 66 65     96%     30.04 30.03      
Apr 18 05:40 Calm 6 Fog/Mist OVC004 67 66     97%     30.04        
Apr 18 04:53 ESE 3 9 Cloudy OVC006 67 66     97%     30.04 30.03      
Apr 18 03:53 Calm 10 Cloudy OVC006 66 65     96%     30.03 30.03      
Apr 18 03:22 NNW 3 10 Mostly Cloudy BKN005 BKN033 BKN055 66 65     96%     30.03        
Apr 18 03:06 NW 5 10 Mostly Cloudy FEW006 BKN029 BKN039 66 65     96%     30.02        
Apr 18 03:03 NW 5 10 Mostly Cloudy FEW025 BKN031 BKN039 66 65     96%     30.02        
Apr 18 02:53 Calm 10 Mostly Cloudy FEW011 BKN029 BKN036 66 65     96%     30.02 30.01      
Apr 18 01:53 E 6 10 Partly Cloudy SCT016 66 65     96%     30.02 30.01      
Apr 18 01:19 E 3 10 Cloudy BKN016 OVC110 67 66     97%     30.03        
Apr 18 00:53 NE 5 10 Cloudy OVC110 66 66     100%     30.03 30.03     1
Apr 17 23:53 NE 5 10 Clear   67 66     97%     30.04 30.03 0    
Apr 17 23:37 NNE 5 10 Mostly Cloudy FEW005 SCT028 BKN110 66 65     96%     30.04   0    
Apr 17 23:20 NNE 5 10 Cloudy SCT004 BKN028 OVC070 66 65     96%     30.04   0    
Apr 17 23:13 Calm 10 Light Rain FEW004 SCT014 OVC031 67 65     93%     30.04   0    
Apr 17 22:59 NNE 11 3 Light Rain and Fog/Mist BKN018 BKN031 OVC070 67 65     93%     30.04   0    
Apr 17 22:55 N 13 1.25 Heavy Rain and Fog/Mist SCT014 BKN021 OVC070 66 65     96%     30.03   0    
Apr 17 22:50 N 11 0.75 Heavy Rain and Fog/Mist BKN014 BKN021 OVC042 66 65     96%     30.03 30.02 1    
Apr 17 22:49 N 13 0.75 Heavy Rain and Fog/Mist BKN014 BKN021 OVC042 66 64     94%     30.03   1    
Apr 17 22:43   2.5 Heavy Rain and Fog/Mist BKN021 OVC042 67 65     93%     30.05   0    
Apr 17 21:53 ESE 8 10 Light Rain OVC030 70 65     84%     30.03 30.02 0 0  
Apr 17 21:39 E 8 10 Cloudy BKN029 OVC060 71 65     81%   72 30.03   0    
Apr 17 20:53 ENE 6 10 Light Rain BKN038 BKN050 OVC070 72 62     71%   72 30.02 30.01 0    
Apr 17 19:53 E 6 10 Cloudy OVC070 73 63     71%   73 30 29.99      
Apr 17 18:53 ENE 6 10 Partly Cloudy FEW040 SCT060 75 62     64%   75 29.99 29.99     0
Apr 17 17:53 E 6 10 Clear CLR 77 60     56%   77 29.98 29.97      
Apr 17 16:53 E 5 10 Clear CLR 77 60     56%   77 29.99 29.98      
Apr 17 15:53 NE 7 10 Clear CLR 75 62     64%   75 29.99 29.98   0  
Apr 17 14:53 NNW 7 10 Partly Cloudy SCT027 SCT032 SCT090 76 65     69%   76 30.03 30.02 0    
Apr 17 13:53 WNW 8 10 Mostly Cloudy FEW047 SCT065 BKN080 72 64     76%   72 30.06 30.05 0    
Apr 17 12:53 W 6 10 Light Rain FEW042 BKN060 OVC090 70 65     84%     30.07 30.06 0   0
Apr 17 11:53 NW 10 10 Cloudy OVC055 71 62     73%   71 30.09 30.09      
Apr 17 10:53 N 5 10 Mostly Clear FEW090 FEW120 70 62     76%     30.09 30.08      
Apr 17 10:08 N 6 10 Cloudy FEW018 SCT023 OVC035 67 62     84%     30.09        
Apr 17 09:53 NNW 6 10 Cloudy SCT016 BKN022 OVC029 66 62     87%     30.08 30.08   0  
Apr 17 09:44 NNW 7 10 Cloudy OVC016 66 62     87%     30.09        
Apr 17 09:25 NW 11 10 Cloudy BKN013 BKN020 OVC050 69 66     90%     30.08        
Apr 17 08:53 SW 7 10 Mostly Cloudy BKN080 BKN100 69 65     87%     30.07 30.06      
Apr 17 07:53 S 8 10 Mostly Cloudy BKN085 67 65     93%     30.06 30.05 0    
Apr 17 06:53 SW 3 10 Cloudy OVC085 66 64     93%     30.05 30.05      
Apr 17 05:53 S 8 10 Cloudy OVC085 66 64     93%     30.04 30.03      
Apr 17 04:53 SSW 8 10 Partly Cloudy SCT060 67 63     87%     30.05 30.04      
Apr 17 03:53 SSW 7 10 Clear   66 63     90%     30.05 30.04      
Apr 17 02:53 S 3 10 Clear CLR 66 63     90%     30.03 30.02      
Apr 17 01:53 SE 6 10 Mostly Clear FEW055 66 64     93%     30.04 30.04      
Apr 17 00:53 ESE 5 10 Mostly Cloudy BKN050 67 64     90%     30.07 30.06      
Apr 16 23:53 ESE 7 10 Mostly Clear FEW050 67 65     93%     30.05 30.05      
Apr 16 22:53 SSE 9 10 Clear CLR 70 65     84%     30.06 30.06      
Apr 16 21:53 ESE 3 10 Mostly Cloudy BKN050 70 65     84%     30.08 30.07      
Apr 16 20:53 Calm 10 Clear CLR 70 67     90%     30.08 30.07      
Apr 16 19:53 Calm 10 Clear CLR 76 64     67%   76 30.05 30.05      
Apr 16 18:53 SSW 7 10 Clear CLR 78 64     62%   79 30.03 30.02      
Apr 16 17:53 S 11 10 Clear CLR 80 63     56%   81 30.02 30.01      
Apr 16 16:53 S 14 10 Clear CLR 80 63     56%   81 30.01 30.01      
Apr 16 15:53 S 8 10 Clear CLR 80 63     56%   81 30.06 30.05      
Apr 16 14:53 W 6 10 Mostly Clear FEW110 80 64     58%   82 30.1 30.09      
Apr 16 13:53 S 6 10 Mostly Cloudy FEW035 BKN100 78 62     58%   78 30.13 30.12      
Apr 16 12:53 S 8 10 Partly Cloudy SCT030 76 63     64%   76 30.15 30.15      
Apr 16 12:45 SW 10 10 Mostly Cloudy BKN027 77 64     64%   77 30.16        
Apr 16 11:53 SSW 10 10 Partly Cloudy SCT024 73 64     73%   73 30.16 30.15      
Apr 09 00:53 S 11 10 Clear CLR 63 54     72%     29.94 29.93      
Apr 08 23:53 SSE 9 10 Clear CLR 62 54     75%     29.94 29.94      
Apr 08 22:53 S 10 10 Clear CLR 63 53     70%     29.95 29.94      
Apr 08 21:53 SSE 10 10 Clear CLR 66 53     63%     29.94 29.94      
Apr 08 20:53 SSE 9 10 Clear CLR 66 53     63%     29.94 29.93      
Apr 08 19:53 SSE 6 10 Clear CLR 68 53     59%     29.93 29.93      
Apr 08 18:53 S 13 10 Clear CLR 74 51     45%   73 29.93 29.93      
Apr 08 17:53 SSW 16 10 Clear CLR 78 50     37%   77 29.94 29.93      
Apr 08 16:53 S 17 10 Clear CLR 79 51     38%   78 29.95 29.94      
Apr 08 15:53 S 15 10 Clear CLR 79 51     38%   78 29.97 29.97      
Apr 08 14:53 SSW 10 10 Clear CLR 79 50     36%   78 30 30      
Apr 08 13:53 S 16 10 Clear CLR 77 51     40%   76 30.03 30.03      
Apr 08 12:53 S 15 10 Clear CLR 75 51     43%   74 30.06 30.06      
Apr 08 11:53 SSW 9 10 Clear CLR 73 47     39%   72 30.09 30.08      
Apr 08 10:53 S 13 10 Clear CLR 70 47     44%     30.11 30.1      
Apr 08 09:53 S 9 10 Clear CLR 65 45     48%     30.11 30.11      
Apr 08 08:53 S 8 10 Clear CLR 57 43     59%     30.11 30.11      
Apr 08 07:53 SE 3 10 Clear CLR 50 41     71% 49   30.12 30.11      
Apr 08 06:53 S 3 10 Clear CLR 45 39     80% 44   30.11 30.11      
Apr 08 05:53 Calm 10 Clear CLR 47 38     71%     30.1 30.1      
Apr 08 04:53 Calm 10 Clear CLR 46 41     82%     30.09 30.09      
Apr 08 03:53 ESE 3 10 Clear CLR 47 42     83% 46   30.09 30.09      
Apr 08 02:53 Calm 10 Clear CLR 48 41     77%     30.1 30.09      
Apr 08 01:53 S 3 10 Clear CLR 49 40     71% 48   30.11 30.1      
Apr 08 00:53 Calm 10 Clear CLR 50 40     68%     30.11 30.11      
Apr 07 23:53 SSW 3 10 Clear CLR 52 40     63%     30.12 30.11      
Apr 07 22:53 SE 3 10 Clear CLR 53 42     66%     30.13 30.12      
Apr 07 21:53 Calm 10 Clear CLR 54 42     64%     30.13 30.13      
Apr 07 20:53 ESE 7 10 Clear CLR 55 44     66%     30.13 30.12      
Apr 07 19:53 ESE 6 10 Clear CLR 59 45     60%     30.12 30.12      
Apr 07 18:53 E 6 10 Clear CLR 65        %     30.12 30.12      
Apr 07 17:53 ESE 5 10 Clear CLR 69 35     29%     30.13 30.12      
Apr 07 16:53 NNE 3 10 Clear CLR 67 33     28%     30.14 30.14      
Apr 07 15:53 5 10 Clear CLR 67 34     29%     30.17 30.17      
Apr 07 14:53 ESE 6 10 Clear CLR 66 34     30%     30.2 30.2      
Apr 07 13:53 N 7 10 Clear CLR 64 33     31%     30.23 30.23      
Apr 07 12:53 NW 7 10 Clear CLR 62 32     32%     30.26 30.25      
Apr 07 11:53 5 10 Clear CLR 61 33     35%     30.28 30.27      
Apr 07 10:53 NNE 8 10 Clear CLR 60 33     36%     30.29 30.28      
Apr 07 09:53 N 7 10 Clear CLR 58 36     44%     30.29 30.29      
Apr 07 08:53 N 8 10 Clear CLR 54 39     57%     30.28 30.27      
Apr 07 07:53 NW 3 10 Clear CLR 47 39     74% 46   30.27 30.27      
Apr 07 06:53 WSW 5 10 Clear CLR 42 36     79% 39   30.24 30.24      
Apr 07 05:53 WNW 3 10 Clear CLR 46 36     68% 45   30.22 30.21      
Apr 07 04:53 NW 5 10 Clear CLR 45 36     71% 43   30.21 30.21      
Apr 07 03:53 W 5 10 Clear CLR 46 36     68% 44   30.22 30.22      
Apr 07 02:53 W 7 10 Clear CLR 47 35     63% 44   30.22 30.22      
Apr 07 01:53 W 6 10 Clear CLR 50 34     54% 48   30.22 30.22      
Apr 07 00:53 NW 6 10 Clear CLR 52 35     52%     30.21 30.21      
Apr 06 23:53 W 6 10 Clear CLR 52 36     54%     30.19 30.19      
Apr 06 22:53 NW 6 10 Clear CLR 54 35     49%     30.18 30.18      
Apr 06 21:53 WNW 6 10 Clear CLR 57 35     44%     30.16 30.16      
Apr 06 20:53 NW 5 10 Clear CLR 59 32     36%     30.13 30.13      
Apr 06 19:53 NW 8 10 Clear CLR 61 31     32%     30.11 30.11      
Apr 06 18:53 NW 13 10 Clear CLR 65 32     29%     30.1 30.09      
Apr 06 17:53 WNW 14 10 Mostly Clear FEW090 67 32     27%     30.1 30.1      
Apr 06 16:53 NNW 20 10 Mostly Clear and Windy FEW090 67 31     26%     30.11 30.1      
Apr 06 15:53 NW 9 10 Mostly Clear FEW090 68 33     27%     30.11 30.11      
Apr 06 14:53 NW 11 10 Mostly Cloudy BKN085 67 34     29%     30.13 30.13      
Apr 06 13:53 NNW 14 10 Partly Cloudy FEW075 SCT090 65 34     32%     30.15 30.14      
Apr 06 12:53 WNW 20 10 Partly Cloudy and Windy SCT070 64 34     33%     30.16 30.16      
Apr 06 11:53 WNW 14 10 Mostly Clear FEW070 63 36     37%     30.18 30.18      
Apr 06 10:53 WNW 10 10 Clear CLR 60 37     42%     30.19 30.19      
Apr 06 09:53 WNW 10 10 Clear CLR 57 36     45%     30.18 30.18      
Apr 06 08:53 W 10 10 Clear CLR 53 39     59%     30.17 30.16      
Apr 06 07:53 WNW 7 10 Clear CLR 48 39     71% 45   30.14 30.14      
Apr 06 06:53 W 6 10 Clear CLR 45 40     82% 42   30.11 30.11      
Apr 06 05:53 WNW 7 10 Clear CLR 46 40     79% 42   30.08 30.08      
Apr 06 04:53 WNW 3 10 Clear CLR 46 40     79% 45   30.04 30.04      
Apr 06 03:53 W 8 10 Clear CLR 49 40     71% 45   30.02 30.01      
Apr 06 02:53 W 10 10 Clear CLR 50 40     68% 46   30.01 30      
Apr 06 00:53 W 8 10 Clear CLR 51 41     68%     29.99 29.98     0
Apr 05 23:53 WSW 7 10 Clear CLR 51 41     68%     29.98 29.98      
Apr 05 22:53 W 7 10 Clear CLR 52 41     66%     29.98 29.98      
Apr 05 21:53 W 7 10 Clear CLR 54 41     61%     29.98 29.97   0  
Apr 05 20:53 W 7 10 Clear CLR 55 41     59%     29.95 29.95 0    
Apr 05 19:53 W 15 10 Light Rain CLR 57 40     53%     29.91 29.91 0    
Apr 05 18:53 W 16 10 Light Rain SCT065 SCT075 60 41     49%     29.88 29.88 0   0
Apr 05 17:53 W 21 10 Light Rain SCT065 59 42     53%     29.86 29.86 0    
Apr 05 16:53 W 23 10 Light Rain BKN045 BKN055 59 43     55%     29.84 29.84 0    
Apr 05 15:53 W 20 10 Cloudy and Windy SCT040 BKN050 OVC060 57 44     62%     29.83 29.82 0 0  
Apr 05 14:53 WSW 22 10 Clear and Windy   58 44     60%     29.81 29.8 0    
Apr 05 13:53 W 23 10 Light Rain BKN035 BKN046 OVC055 57 44     62%     29.79 29.79 0    
Apr 05 12:53 WSW 16 10 Cloudy OVC037 58 44     60%     29.78 29.77     0
Apr 05 11:53 W 17 10 Cloudy OVC033 57 44     62%     29.77 29.77 0    
Apr 05 10:53 W 17 10 Mostly Cloudy BKN035 59 45     60%     29.75 29.74      
Apr 05 09:53 WSW 23 10 Partly Cloudy and Windy FEW028 SCT033 58 45     62%     29.72 29.71      
Apr 05 09:48 WSW 18 10 Mostly Cloudy BKN030 57 46     67%     29.71        
Apr 05 09:10 W 15 10 Mostly Cloudy BKN028 59 50     72%     29.69        
Apr 05 08:53 WSW 14 10 Mostly Clear FEW030 58 50     75%     29.69 29.68      
Apr 05 07:53 W 13 10 Clear CLR 60 53     78%     29.67 29.66      
Apr 05 06:53 SSW 6 10 Clear CLR 59 54     83%     29.64 29.64     0
Apr 05 05:53 ESE 6 10 Clear CLR 60 54     80%     29.64 29.63      
Apr 05 04:53 E 7 10 Clear   61 55     81%     29.65 29.64      
Apr 05 03:53 NNW 3 10 Mostly Cloudy FEW048 SCT100 BKN120 66 53     63%     29.68 29.67 0 0  
Apr 05 03:49 WNW 6 10 Mostly Cloudy FEW048 SCT095 BKN120 64 54     68%     29.68   0    
Apr 05 03:32 SSE 3 10 Mostly Cloudy FEW050 BKN090 BKN120 62 56     80%     29.68        
Apr 05 02:53 NW 5 10 Partly Cloudy SCT090 66 53     63%     29.7 29.69      
Apr 05 01:53 S 10 10 Mostly Clear FEW120 65 53     65%     29.65 29.64      
Apr 05 00:53 S 10 10 Mostly Cloudy BKN100 69 53     57%     29.66 29.65      
Apr 04 23:53 SSE 10 10 Clear CLR 67 54     63%     29.65 29.65      
Apr 04 22:53 S 7 10 Clear CLR 68 55     63%     29.66 29.65      
Apr 04 21:53 SSE 14 10 Clear CLR 72 57     59%   72 29.66 29.65      
Apr 04 20:53 SSE 13 10 Clear CLR 72 59     64%   72 29.65 29.65      
Apr 04 19:53 SE 9 10 Clear CLR 73 60     64%   73 29.67 29.66      
Apr 04 18:53 S 13 10 Clear CLR 78 58     50%   78 29.67 29.67      
Apr 04 17:53 S 17 10 Clear CLR 81 57     44%   81 29.67 29.66      
Apr 04 16:53 SSE 14 10 Clear CLR 83 58     43%   83 29.68 29.67      
Apr 04 15:53 S 15 10 Clear CLR 83 57     41%   82 29.68 29.67      
Apr 04 14:53 SSE 10 10 Clear CLR 83 56     40%   82 29.7 29.69      
Apr 04 13:53 S 8 10 Clear CLR 82 56     41%   82 29.74 29.73      
Apr 04 12:53 SE 10 10 Clear CLR 79 61     54%   79 29.76 29.75      
Apr 04 11:53 ESE 10 10 Clear CLR 77 59     54%   77 29.79 29.78      
Apr 04 10:53 ESE 10 10 Clear CLR 73 59     61%   73 29.8 29.79      
Apr 04 08:53 Calm 10 Clear CLR 62 57     84%     29.81 29.8      
Apr 04 07:53 Calm 10 Clear CLR 56 55     97%     29.8 29.79      
Apr 04 06:53 Calm 7 Clear CLR 52 52     100%     29.78 29.77      
Apr 04 05:53 Calm 10 Clear CLR 53 52     96%     29.77 29.76      
Apr 04 04:53 SSW 3 10 Clear CLR 55 54     96%     29.77 29.76      
Apr 04 03:53 Calm 10 Clear CLR 55 54     96%     29.75 29.74      
Apr 04 02:53 Calm 10 Clear CLR 58 55     90%     29.75 29.74      
Apr 04 01:53 SW 5 10 Clear CLR 59 55     87%     29.75 29.75      
Apr 04 00:53 SW 3 10 Clear CLR 60 55     83%     29.75 29.74      
Apr 03 23:53 SW 6 10 Clear CLR 62 55     78%     29.74 29.73      
Apr 03 22:53 SSW 6 10 Clear CLR 62 54     75%     29.73 29.72      
Apr 03 21:53 SW 7 10 Clear CLR 64 54     70%     29.71 29.71      
Apr 03 20:53 SSW 7 10 Clear CLR 65 55     70%     29.69 29.68      
Apr 03 19:53 SW 6 10 Clear CLR 69 54     59%     29.65 29.65      
Apr 03 18:53 WSW 10 10 Clear CLR 73 52     48%   72 29.63 29.62      
Apr 03 17:53 WSW 11 10 Mostly Clear FEW060 75 52     45%   74 29.62 29.61      
Apr 03 16:53 WSW 13 10 Clear CLR 74 52     46%   73 29.61 29.6      
Apr 03 15:53 WSW 18 10 Mostly Clear FEW048 74 54     50%   73 29.6 29.59      
Apr 03 14:53 WSW 17 10 Clear   74 55     52%   73 29.6 29.59      
Apr 03 13:53 SW 21 10 Partly Cloudy and Windy SCT041 71 55     57%   71 29.62 29.62      
Apr 03 12:53 SW 16 10 Clear CLR 70 58     66%     29.63 29.62     0
Apr 03 12:14 WSW 16 10 Mostly Cloudy SCT025 BKN080 68 57     68%     29.64        
Apr 03 11:53 WSW 17 10 Mostly Cloudy SCT024 BKN028 BKN080 68 58     70%     29.64 29.63      
Apr 03 10:53 WSW 16 10 Mostly Cloudy FEW021 BKN100 66 58     75%     29.64 29.64      
Apr 03 10:12 SW 16 10 Clear   64 58     81%     29.65        
Apr 03 09:53 SW 17 10 Clear   64 59     84%     29.64 29.63   0  
Apr 03 09:30 SW 14 10 Mostly Cloudy SCT015 SCT024 BKN028 65 60     84%     29.63        
Apr 03 08:53 SSW 14 10 Mostly Clear FEW034 65 60     84%     29.64 29.63      
Apr 03 07:53 SSW 13 10 Mostly Cloudy FEW014 BKN030 63 60     90%     29.62 29.61 0    
Apr 03 07:48 SSW 14 10 Cloudy FEW014 FEW022 OVC030 63 61     94%     29.62   0    
Apr 03 07:25 SSW 14 10 Cloudy FEW009 BKN022 OVC027 63 61     93%     29.59   0    
Apr 03 06:53 SSW 11 10 Cloudy SCT007 BKN011 OVC032 63 62     97%     29.6 29.59 0   0
Apr 03 06:24 S 10 10 Cloudy BKN008 OVC036 63 62     97%     29.58   0    
Apr 03 05:53 SSW 11 10 Light Rain OVC010 63 61     93%     29.58 29.57 0    
Apr 03 05:05 S 11 10 Cloudy BKN011 OVC021 63 61     93%     29.6        
Apr 03 04:53 S 14 10 Cloudy FEW011 OVC021 63 61     93%     29.6 29.6      
Apr 03 04:29 S 9 10 Cloudy SCT011 OVC021 63 61     93%     29.62        
Apr 03 04:09 S 11 10 Cloudy BKN011 OVC018 63 62     97%     29.63        
Apr 03 03:53 S 11 10 Cloudy SCT012 OVC018 63 61     93%     29.61 29.6      
Apr 03 03:01 SSE 13 10 Cloudy BKN016 OVC020 64 62     93%     29.62        
Apr 03 02:53 SSE 11 10 Cloudy OVC014 64 62     93%     29.62 29.61      
Apr 03 01:53 S 11 10 Cloudy OVC017 64 62     93%     29.64 29.63      
Apr 03 01:17 S 13 10 Cloudy OVC016 64 62     93%     29.65        
Apr 03 00:53 S 14 10 Cloudy BKN012 OVC018 64 62     93%     29.66 29.65 0   0
Apr 03 00:22 S 13 10 Cloudy OVC010 64 62     93%     29.67   0    
Apr 03 00:11 S 13 10 Thunderstorms OVC011 64 62     93%     29.65   0    
Apr 02 23:53 SSE 11 10 Light Rain OVC011 64 61     90%     29.65 29.64 0    
Apr 02 23:00 SE 17 10 Light Rain BKN009 BKN080 OVC110 63 61     93%     29.61   0    
Apr 02 22:53 SSE 15 10 Light Rain SCT009 BKN080 BKN110 62 61     96%     29.63 29.62 0    
Apr 02 21:53 SE 10 10 Light Rain FEW007 SCT110 61 59     93%     29.69 29.68 0 0  
Apr 02 21:49 SSE 9 10 Light Rain SCT007 61 59     94%     29.71   0    
Apr 02 20:53 SE 17 10 Cloudy OVC007 61 60     97%     29.69 29.68      
Apr 02 20:12 E 20 10 Mostly Cloudy and Windy BKN008 61 60     97%     29.67        
Apr 02 20:03 E 22 10 Partly Cloudy and Windy SCT008 61 60     97%     29.66        
Apr 02 19:53 E 21 10 Mostly Cloudy and Windy BKN010 61 60     97%     29.68 29.68 0    
Apr 02 19:51 E 23 10 Mostly Cloudy and Windy BKN010 61 61     100%     29.69   0    
Apr 02 19:10 E 14 10 Mostly Cloudy BKN009 60 60     100%     29.7   0    
Apr 02 18:53 E 23 10 Light Rain SCT009 SCT060 BKN090 60 60     100%     29.66   0   1
Apr 02 18:32 NE 13 10 Light Rain FEW007 SCT090 OVC110 60 60     100%     29.71   0    
Apr 02 18:12 NNE 23 10 Light Rain FEW005 SCT080 OVC110 60 60     100%     29.75   0    
Apr 02 18:04 N 13 10 Thunderstorms and Rain FEW055 SCT090 OVC110 60 60     100%     29.79   0    
Apr 02 17:53 NNE 14 7 Thunderstorms and Rain FEW049 BKN090 OVC110 60 60     100%     29.79 29.79 0    
Apr 02 17:33 WNW 10 4 Heavy Rain and Fog/Mist FEW008 OVC045 61 60     97%     29.86   0    
Apr 02 17:29 NNW 10 3 Thunderstorms and Rain and Fog/Mist FEW035 OVC045 61 60     97%     29.84   0    
Apr 02 17:17 WSW 5 1.5 Thunderstorms and Heavy Rain and Fog/Mist FEW009 BKN037 OVC049 61 61     100%     29.86   0    
Apr 02 17:13   1.75 Thunderstorms and Heavy Rain and Fog/Mist BKN041 OVC050 61 61     100%     29.86   0    
Apr 02 17:04 WNW 11 4 Thunderstorms and Heavy Rain and Fog/Mist OVC050 61 60     97%     29.82   0    
Apr 02 16:53 N 18 4 Heavy Rain and Fog/Mist BKN050 OVC065 60 60     100%     29.74   0    
Apr 02 16:32 N 10 5 Thunderstorms and Heavy Rain and Fog/Mist BKN055 OVC070 61 60     97%     29.78   0    
Apr 02 16:21 N 13 4 Heavy Rain and Fog/Mist BKN049 BKN070 OVC090 61 59     93%     29.78   0    
Apr 02 15:57 N 8 3 Thunderstorms and Heavy Rain and Fog/Mist SCT034 BKN047 OVC085 61 60     97%     29.81   0    
Apr 02 15:53 N 8 1.5 Thunderstorms and Heavy Rain and Fog/Mist BKN032 BKN047 OVC090 62 60     93%     29.82 29.81 0 1  
Apr 02 15:44 W 6 2.5 Thunderstorms and Rain and Fog/Mist FEW035 BKN045 OVC090 62 60     93%     29.83   0    
Apr 02 15:27 NNW 11 4 Rain and Fog/Mist FEW047 BKN070 OVC100 62 60     93%     29.8   0    
Apr 02 14:53 N 10 4 Thunderstorms and Rain and Fog/Mist FEW075 BKN090 OVC110 63 61     93%     29.8 29.8 0    
Apr 02 14:51 N 9 4 Thunderstorms and Rain and Fog/Mist FEW070 BKN090 OVC110 63 61     94%     29.81   0    
Apr 02 14:44 N 9 5 Rain and Fog/Mist SCT065 BKN090 OVC110 62 61     96%     29.82   0    
Apr 02 14:29 N 7 4 Rain and Fog/Mist BKN060 BKN075 OVC100 63 61     93%     29.85   0    
Apr 02 14:04 WSW 9 5 Thunderstorms and Rain SCT055 BKN070 OVC100 65 60     84%     29.91   0    
Apr 02 13:53 W 7 6 Rain FEW060 BKN075 OVC100 67 61     81%     29.9 29.9 0    
Apr 02 13:33 ESE 8 10 Thunderstorms and Rain BKN070 BKN090 BKN110 69 58     68%     29.89   0    
Apr 02 12:53 ENE 6 10 Clear CLR 71 56     59%   71 29.89 29.89      
Apr 02 11:53 E 11 10 Clear CLR 71 56     59%   71 29.92 29.91      
Apr 02 10:53   10 Clear CLR 70 55     59%     29.94 29.94      
Apr 02 09:53 E 14 10 Clear CLR 67 53     61%     29.98 29.97      
Apr 02 08:53 E 14 10 Clear CLR 62 52     70%     29.99 29.98      
Apr 02 07:53 ENE 6 10 Clear CLR 58 52     81%     30.03 30.03      
Apr 02 06:53 NNE 3 10 Clear CLR 57 51     81%     30.04 30.03      
Apr 02 05:53 NE 7 10 Partly Cloudy SCT070 57 51     81%     30.02 30.01      
Apr 02 04:53 N 6 10 Clear CLR 56 51     84%     30.02 30.01      
Apr 02 03:53 NNE 8 10 Clear CLR 58 52     81%     30 29.99      
Apr 02 02:53 NE 8 10 Clear CLR 58 51     78%     30 29.99      
Apr 02 01:53 NNE 9 10 Clear CLR 59 52     78%     30.02 30.01      
Apr 02 00:53 NNE 9 10 Clear CLR 61 52     72%     30.04 30.03      
Apr 01 23:53 NNE 9 10 Clear CLR 62 52     70%     30.04 30.03      
Apr 01 21:53 NNE 11 10 Clear CLR 65 53     65%     30.04 30.04      
Apr 01 20:53 NE 7 10 Clear CLR 65 53     65%     30.03 30.02      
Apr 01 19:53 ENE 10 10 Clear CLR 69 53     57%     30.01 30      
Apr 01 18:53 ENE 14 10 Clear CLR 72 54     53%   71 30.02 30.01      
Apr 01 17:53 E 11 10 Clear CLR 75 54     48%   74 30.02 30.02      
Apr 01 16:53 ENE 13 10 Clear   75 54     48%   74 30.03 30.02      
Apr 01 15:53 E 14 10 Clear CLR 75 54     48%   74 30.04 30.03      
Apr 01 14:53 ENE 10 10 Clear CLR 73 53     50%   72 30.07 30.06      
Apr 01 13:53 E 9 10 Clear CLR 72 53     51%   71 30.09 30.09      
Apr 01 12:53 NE 14 10 Clear CLR 70 53     55%     30.1 30.09      
Apr 01 11:53 NE 10 10 Clear CLR 67 52     59%     30.12 30.11      
Apr 01 10:53 NNE 8 10 Partly Cloudy SCT041 64 52     65%     30.13 30.13      
Apr 01 09:53 ENE 10 10 Clear CLR 61 51     70%     30.12 30.11      
Apr 01 08:53 ENE 10 10 Clear CLR 58 51     78%     30.1 30.1      
Apr 01 07:53 NE 10 10 Clear CLR 54 51     90%     30.08 30.08      
Apr 01 06:53 NE 8 10 Clear CLR 54 50     86%     30.07 30.06      
Apr 01 05:53 NNE 8 10 Clear CLR 55 51     86%     30.04 30.03      
Apr 01 04:53 NNE 6 10 Clear CLR 56 51     84%     30.02 30.01      
Apr 01 03:53 NE 6 10 Clear CLR 57 51     81%     30 30      
Apr 01 02:53 NE 8 10 Clear CLR 59 51     75%     29.99 29.98      
Apr 01 01:53 ENE 6 10 Clear CLR 59 51     75%     29.99 29.98      
Apr 01 00:53 ENE 7 10 Clear CLR 59 51     75%     29.97 29.96      
Mar 31 23:53 E 5 10 Clear CLR 60 52     75%     29.95 29.95      
Mar 31 22:53 ESE 5 10 Clear CLR 60 52     75%     29.93 29.93      
Mar 31 21:53 ENE 3 10 Clear CLR 62 53     72%     29.92 29.92      
Mar 31 20:53 NE 6 10 Clear CLR 65 52     63%     29.91 29.9      
Mar 31 19:53 ENE 9 10 Clear CLR 69 51     53%     29.88 29.88      
Mar 31 18:53 E 10 10 Clear CLR 72 53     51%   71 29.86 29.86      
Mar 31 17:53 NNE 8 10 Clear CLR 75 50     41%   74 29.85 29.85      
Mar 31 16:53 E 7 10 Clear CLR 76 50     40%   75 29.85 29.85      
Mar 31 15:53 3 10 Clear CLR 77 50     39%   76 29.85 29.84      
Mar 31 14:53 5 10 Clear CLR 74 49     41%   73 29.87 29.86      
Mar 31 13:53 Calm 10 Clear CLR 71 47     42%   70 29.89 29.88      
Mar 31 11:53 Calm 10 Clear CLR 64 46     52%     29.92 29.92      
Mar 31 10:53 Calm 10 Clear CLR 59 45     60%     29.93 29.93      
Mar 31 09:53 Calm 10 Clear CLR 57 45     64%     29.92 29.91      
Mar 31 08:53 N 6 10 Clear CLR 54 46     74%     29.89 29.89      
Mar 31 07:53 WNW 5 10 Clear CLR 51 46     83%     29.88 29.87      
Mar 31 06:53 NNW 7 10 Clear CLR 48 43     83% 45   29.86 29.85      
Mar 31 05:53 NNW 5 10 Clear CLR 48 44     86% 46   29.84 29.84      
Mar 31 04:53 Calm 10 Clear CLR 50 45     83%     29.83 29.83      
Mar 31 03:53 W 3 10 Clear CLR 50 46     86% 49   29.81 29.81      
Mar 31 02:53 SW 3 10 Clear CLR 49 46     90% 48   29.8 29.79      
Mar 31 01:53 Calm 10 Clear CLR 51 47     86%     29.79 29.79      
Mar 31 00:53 Calm 10 Clear CLR 52 47     83%     29.79 29.79      
Mar 30 23:53 NW 3 10 Clear CLR 52 47     83%     29.79 29.78      
Mar 30 22:53 SSW 3 10 Clear CLR 54 47     77%     29.77 29.77      
Mar 30 21:53 SW 5 10 Clear CLR 55 46     72%     29.76 29.76      
Mar 30 20:53 Calm 10 Clear   57 46     67%     29.76 29.75      
Mar 30 19:53 WSW 9 10 Clear CLR 60 45     57%     29.74 29.74      
Mar 30 18:53 W 13 10 Mostly Cloudy BKN055 62 44     52%     29.73 29.72      
Mar 30 17:53 W 17 10 Clear   64 44     48%     29.72 29.71      
Mar 30 16:53 W 14 10 Mostly Cloudy BKN055 65 44     47%     29.71 29.7      
Mar 30 15:53 W 15 10 Cloudy OVC050 66 44     45%     29.71 29.7      
Mar 30 14:53 WSW 16 10 Clear CLR 68 45     43%     29.69 29.68      
Mar 30 13:53 SW 22 10 Clear and Windy CLR 68 44     42%     29.7 29.69      
Mar 30 12:53 SW 16 10 Clear CLR 67 46     47%     29.72 29.72      
Mar 30 11:53 SW 16 10 Clear   65 44     47%     29.74 29.73      
Mar 30 10:53 WSW 17 10 Clear CLR 63 46     54%     29.75 29.75      
Mar 30 09:53 SW 11 10 Mostly Clear FEW024 61 47     60%     29.77 29.76      
Mar 30 09:05 SW 15 10 Cloudy SCT027 BKN080 OVC095 61 51     70%     29.75        
Mar 30 08:53 WSW 14 10 Cloudy FEW022 BKN027 OVC095 62 53     72%     29.73 29.73      
Mar 30 08:10 SW 11 10 Cloudy BKN016 BKN022 OVC100 63 58     84%     29.72        
Mar 30 07:53 SSW 7 10 Cloudy FEW016 FEW042 OVC100 64 59     84%     29.72 29.71      
Mar 30 07:34 SSW 14 10 Cloudy SCT014 BKN042 OVC100 64 59     84%     29.72        
Mar 30 07:12 SW 10 10 Cloudy BKN014 OVC042 64 61     90%     29.72        
Mar 30 07:03 SW 10 10 Cloudy SCT012 OVC042 64 61     90%     29.72        
Mar 30 06:53 SSW 10 10 Cloudy BKN011 OVC044 64 61     90%     29.72 29.72      
Mar 30 06:00 SSW 13 10 Cloudy BKN011 BKN016 OVC036 64 62     93%     29.7        
Mar 30 05:53 SSW 13 10 Cloudy BKN009 BKN019 OVC040 65 62     90%     29.7 29.69      
Mar 30 05:48 SSW 13 10 Cloudy SCT009 BKN016 OVC040 64 63     94%     29.7        
Mar 30 05:07 S 9 10 Mostly Cloudy BKN009 BKN100 64 61     90%     29.69        
Mar 30 04:53 S 9 10 Mostly Cloudy FEW011 BKN100 63 60     90%     29.69 29.68      
Mar 30 03:53 S 13 10 Mostly Cloudy BKN085 63 60     90%     29.7 29.69      
Mar 30 02:53 S 9 10 Clear CLR 63 58     84%     29.71 29.7      
Mar 30 01:53 S 10 10 Mostly Cloudy FEW026 SCT038 BKN060 65 58     78%     29.73 29.72      
Mar 30 00:53 SSE 10 10 Cloudy SCT042 OVC050 67 58     73%     29.74 29.74      
Mar 29 23:53 SSE 9 10 Partly Cloudy SCT120 68 56     65%     29.74 29.74      
Mar 29 22:53 S 14 10 Clear CLR 71 54     55%   70 29.72 29.71      
Mar 29 21:53 SSW 14 10 Clear CLR 73 62     68%   73 29.72 29.72      
Mar 29 20:53 SSE 8 10 Clear CLR 73 63     71%   73 29.74 29.73      
Mar 29 19:53 SSE 11 10 Mostly Clear FEW050 FEW060 FEW100 75 62     64%   75 29.76 29.75      
Mar 29 18:53 S 15 10 Cloudy SCT060 OVC080 76 61     60%   76 29.78 29.77      
Mar 29 17:53 S 14 10 Clear CLR 78 61     56%   78 29.76 29.75      
Mar 29 16:53 S 20 10 Clear and Windy CLR 80 60     51%   81 29.76 29.75      
Mar 29 15:53 S 18 10 Clear CLR 79 60     52%   79 29.78 29.77      
Mar 29 14:53 SSE 16 10 Clear CLR 79 62     56%   79 29.79 29.79      
Mar 29 13:53 SSE 20 10 Mostly Clear and Windy FEW041 79 62     56%   79 29.81 29.8      
Mar 29 12:53 SSE 20 10 Clear and Windy CLR 76 63     64%   76 29.83 29.83      
Mar 29 11:53 SSE 15 10 Clear CLR 76 64     67%   76 29.87 29.87      
Mar 29 10:53 S 17 10 Mostly Clear FEW035 75 64     69%   75 29.91 29.91      
Mar 29 09:53 S 17 10 Partly Cloudy SCT090 71 63     76%   71 29.91 29.91      
Mar 29 08:53 SE 15 10 Clear CLR 69 64     84%     29.88 29.87      
Mar 29 07:53 SSE 6 10 Mostly Clear FEW024 63 61     93%     29.93 29.92      
Mar 29 06:53 Calm 10 Mostly Cloudy BKN060 BKN075 63 60     90%     29.9 29.89      
Mar 29 05:53 ESE 5 10 Clear CLR 61 59     93%     29.83 29.82      
Mar 29 04:53 NE 3 10 Mostly Clear FEW047 FEW065 63 59     87%     29.84 29.83      
Mar 29 03:53 Calm 10 Clear   63 59     87%     29.86 29.85      
Mar 29 01:53 ENE 6 10 Partly Cloudy FEW050 SCT075 65 59     81%     29.88 29.87      
Mar 29 00:53 ENE 8 10 Partly Cloudy FEW060 SCT075 66 59     78%     29.89 29.88      
Mar 28 23:53 ENE 8 10 Mostly Cloudy FEW060 BKN080 67 60     79%     29.9 29.89      
Mar 28 22:53 NE 7 10 Mostly Cloudy BKN050 BKN060 BKN080 68 61     78%     29.91 29.9      
Mar 28 21:53 ENE 9 10 Clear CLR 70 61     73%     29.9 29.9      
Mar 28 20:53 NE 8 10 Clear CLR 71 62     73%   71 29.89 29.88      
Mar 28 19:53 NE 7 10 Mostly Cloudy SCT040 BKN055 BKN065 73 63     71%   73 29.88 29.88      
Mar 28 18:53 ENE 9 10 Mostly Cloudy BKN050 75 63     66%   75 29.87 29.86      
Mar 28 17:53 NNE 11 10 Mostly Clear FEW055 78 62     58%   78 29.88 29.87      
Mar 28 16:53 NE 8 10 Partly Cloudy SCT060 78 62     58%   78 29.89 29.88      
Mar 28 15:53 E 5 10 Mostly Cloudy FEW036 BKN050 80 61     52%   81 29.91 29.9      
Mar 28 14:53 ENE 6 10 Clear CLR 77 62     60%   77 29.92 29.91      
Mar 28 13:53 ENE 7 10 Clear CLR 75 61     62%   75 29.96 29.95      
Mar 28 12:53 ESE 6 10 Clear CLR 74 60     62%   74 29.99 29.98      
Mar 28 11:53 NE 7 10 Clear CLR 70 59     68%     30.01 30      
Mar 28 10:53 E 5 10 Mostly Cloudy BKN041 66 58     75%     30.02 30.01